| time (UTC) | temp F | wind direction | speed MPH | gust MPH | rain 1hr in | rain 24hr in | rain mn in | humidity % | barometer mb |
| 20260507060559 | 55 | 0 | 0.0 | 4.0 | 0.00 | 0.02 | 0.00 | 80 | 1017.4 |
| 20260507055555 | 55 | 0 | 0.0 | 3.0 | 0.00 | 0.02 | 0.00 | 80 | 1017.3 |
| 20260507055056 | 55 | 0 | 0.0 | 3.0 | 0.00 | 0.02 | 0.00 | 80 | 1017.2 |
| 20260507054058 | 55 | 57 | 0.0 | 4.0 | 0.00 | 0.02 | 0.00 | 79 | 1017.2 |
| 20260507053555 | 55 | 57 | 1.0 | 4.0 | 0.00 | 0.02 | 0.00 | 79 | 1017.1 |
| 20260507053058 | 55 | 0 | 1.0 | 4.0 | 0.00 | 0.02 | 0.00 | 79 | 1017.1 |
| 20260507052559 | 55 | 0 | 1.0 | 4.0 | 0.00 | 0.02 | 0.00 | 79 | 1017.0 |
| 20260507052055 | 55 | 49 | 1.0 | 5.0 | 0.00 | 0.02 | 0.00 | 79 | 1017.0 |
| 20260507051558 | 55 | 0 | 1.0 | 5.0 | 0.00 | 0.02 | 0.00 | 79 | 1017.0 |
| 20260507051057 | 55 | 69 | 1.0 | 4.0 | 0.00 | 0.02 | 0.00 | 78 | 1017.0 |
| 20260507050601 | 55 | 68 | 1.0 | 4.0 | 0.00 | 0.02 | 0.00 | 78 | 1017.1 |
| 20260507050055 | 56 | 0 | 1.0 | 4.0 | 0.00 | 0.02 | 0.00 | 78 | 1017.1 |
| 20260507045556 | 56 | 69 | 0.0 | 4.0 | 0.00 | 0.02 | 0.02 | 78 | 1017.1 |
| 20260507045056 | 56 | 69 | 0.0 | 3.0 | 0.00 | 0.02 | 0.02 | 77 | 1017.2 |
| 20260507044610 | 56 | 0 | 0.0 | 2.0 | 0.00 | 0.02 | 0.02 | 77 | 1017.3 |
| 20260507044055 | 56 | 0 | 0.0 | 2.0 | 0.00 | 0.02 | 0.02 | 77 | 1017.3 |
| 20260507043555 | 57 | 0 | 0.0 | 2.0 | 0.00 | 0.02 | 0.02 | 76 | 1017.4 |
| 20260507043123 | 57 | 0 | 0.0 | 2.0 | 0.00 | 0.02 | 0.02 | 76 | 1017.5 |
| 20260507042556 | 57 | 66 | 0.0 | 2.0 | 0.00 | 0.02 | 0.02 | 76 | 1017.5 |
| 20260507042055 | 57 | 0 | 0.0 | 2.0 | 0.00 | 0.02 | 0.02 | 75 | 1017.5 |
| 20260507041610 | 57 | 0 | 0.0 | 3.0 | 0.00 | 0.02 | 0.02 | 75 | 1017.5 |
| 20260507041055 | 58 | 65 | 0.0 | 3.0 | 0.00 | 0.02 | 0.02 | 74 | 1017.4 |
| 20260507040555 | 58 | 65 | 0.0 | 3.0 | 0.00 | 0.02 | 0.02 | 74 | 1017.3 |
| 20260507040055 | 58 | 0 | 1.0 | 4.0 | 0.00 | 0.02 | 0.02 | 74 | 1017.4 |
| 20260507035556 | 58 | 65 | 0.0 | 5.0 | 0.00 | 0.02 | 0.02 | 73 | 1017.3 |
| 20260507035056 | 58 | 70 | 1.0 | 6.0 | 0.00 | 0.02 | 0.02 | 73 | 1017.4 |
| 20260507034555 | 58 | 69 | 2.0 | 7.0 | 0.00 | 0.02 | 0.02 | 73 | 1017.4 |
| 20260507034055 | 58 | 78 | 1.0 | 7.0 | 0.00 | 0.02 | 0.02 | 73 | 1017.5 |
| 20260507033556 | 58 | 90 | 0.0 | 5.0 | 0.00 | 0.02 | 0.02 | 72 | 1017.5 |
| 20260507033054 | 59 | 88 | 1.0 | 7.0 | 0.00 | 0.02 | 0.02 | 72 | 1017.3 |
| 20260507032559 | 59 | 71 | 2.0 | 8.0 | 0.00 | 0.02 | 0.02 | 71 | 1017.2 |
| 20260507032055 | 59 | 75 | 3.0 | 8.0 | 0.00 | 0.02 | 0.02 | 71 | 1017.3 |
| 20260507031553 | 59 | 56 | 1.0 | 8.0 | 0.00 | 0.02 | 0.02 | 71 | 1017.3 |
| 20260507031058 | 59 | 101 | 2.0 | 8.0 | 0.00 | 0.02 | 0.02 | 71 | 1017.3 |
| 20260507030555 | 59 | 90 | 1.0 | 7.0 | 0.00 | 0.02 | 0.02 | 71 | 1017.3 |
| 20260507030057 | 59 | 60 | 1.0 | 5.0 | 0.00 | 0.02 | 0.02 | 71 | 1017.2 |
| 20260507025555 | 60 | 0 | 1.0 | 8.0 | 0.00 | 0.02 | 0.02 | 71 | 1017.1 |
| 20260507025059 | 60 | 0 | 1.0 | 8.0 | 0.00 | 0.02 | 0.02 | 71 | 1017.1 |
| 20260507024556 | 60 | 71 | 1.0 | 6.0 | 0.00 | 0.02 | 0.02 | 71 | 1017.1 |
| 20260507024056 | 60 | 63 | 1.0 | 6.0 | 0.00 | 0.02 | 0.02 | 70 | 1017.0 |
| 20260507023555 | 60 | 53 | 1.0 | 8.0 | 0.00 | 0.02 | 0.02 | 70 | 1017.0 |
| 20260507023108 | 60 | 35 | 1.0 | 8.0 | 0.00 | 0.02 | 0.02 | 70 | 1016.9 |
| 20260507022555 | 60 | 86 | 1.0 | 7.0 | 0.00 | 0.02 | 0.02 | 70 | 1016.8 |
| 20260507022056 | 60 | 94 | 1.0 | 8.0 | 0.00 | 0.02 | 0.02 | 69 | 1016.8 |
| 20260507021555 | 60 | 42 | 2.0 | 8.0 | 0.00 | 0.02 | 0.02 | 69 | 1016.8 |
| 20260507021056 | 60 | 77 | 2.0 | 8.0 | 0.00 | 0.02 | 0.02 | 69 | 1016.9 |
| 20260507020556 | 60 | 41 | 2.0 | 8.0 | 0.00 | 0.02 | 0.02 | 69 | 1016.8 |
| 20260507020059 | 60 | 0 | 2.0 | 9.0 | 0.00 | 0.02 | 0.02 | 69 | 1016.6 |
| 20260507015555 | 60 | 71 | 2.0 | 9.0 | 0.00 | 0.02 | 0.02 | 69 | 1016.5 |
| 20260507015055 | 61 | 73 | 0.0 | 8.0 | 0.00 | 0.02 | 0.02 | 69 | 1016.2 |
| 20260507014557 | 61 | 0 | 2.0 | 8.0 | 0.00 | 0.02 | 0.02 | 69 | 1016.1 |
| 20260507014055 | 61 | 5 | 2.0 | 8.0 | 0.00 | 0.02 | 0.02 | 69 | 1015.9 |
| 20260507013556 | 61 | 0 | 1.0 | 9.0 | 0.00 | 0.02 | 0.02 | 69 | 1015.8 |
| 20260507013054 | 61 | 59 | 2.0 | 9.0 | 0.00 | 0.02 | 0.02 | 68 | 1015.6 |
| 20260507012555 | 62 | 311 | 2.0 | 9.0 | 0.00 | 0.02 | 0.02 | 68 | 1015.4 |
| 20260507012056 | 62 | 67 | 1.0 | 6.0 | 0.00 | 0.02 | 0.02 | 68 | 1015.2 |
| 20260507011555 | 62 | 30 | 2.0 | 6.0 | 0.00 | 0.02 | 0.02 | 68 | 1015.1 |
| 20260507011055 | 62 | 360 | 1.0 | 5.0 | 0.00 | 0.02 | 0.02 | 68 | 1015.0 |
| 20260507010555 | 62 | 360 | 1.0 | 6.0 | 0.00 | 0.02 | 0.02 | 68 | 1015.0 |
| 20260507010059 | 63 | 31 | 1.0 | 9.0 | 0.00 | 0.02 | 0.02 | 68 | 1015.0 |
| 20260507005556 | 63 | 82 | 1.0 | 9.0 | 0.00 | 0.02 | 0.02 | 68 | 1014.9 |
| 20260507005059 | 63 | 63 | 2.0 | 6.0 | 0.00 | 0.02 | 0.02 | 67 | 1014.9 |
| 20260507004554 | 63 | 64 | 1.0 | 5.0 | 0.00 | 0.02 | 0.02 | 67 | 1014.8 |
| 20260507004055 | 63 | 19 | 2.0 | 5.0 | 0.00 | 0.02 | 0.02 | 67 | 1014.7 |
| 20260507003556 | 63 | 127 | 1.0 | 4.0 | 0.00 | 0.02 | 0.02 | 67 | 1014.7 |
| 20260507003114 | 63 | 0 | 0.0 | 6.0 | 0.00 | 0.02 | 0.02 | 67 | 1014.6 |
| 20260507002555 | 63 | 360 | 1.0 | 6.0 | 0.00 | 0.02 | 0.02 | 67 | 1014.6 |
| 20260507002056 | 64 | 360 | 1.0 | 5.0 | 0.00 | 0.02 | 0.02 | 67 | 1014.5 |
| 20260507001612 | 64 | 360 | 1.0 | 6.0 | 0.00 | 0.02 | 0.02 | 67 | 1014.4 |
| 20260507001055 | 64 | 0 | 1.0 | 6.0 | 0.00 | 0.02 | 0.02 | 67 | 1014.4 |
| 20260507000559 | 64 | 360 | 1.0 | 8.0 | 0.00 | 0.02 | 0.02 | 66 | 1014.3 |
| 20260507000054 | 64 | 360 | 1.0 | 9.0 | 0.00 | 0.02 | 0.02 | 66 | 1014.2 |
| 20260506235556 | 64 | 360 | 1.0 | 9.0 | 0.00 | 0.02 | 0.02 | 66 | 1014.1 |
| 20260506235057 | 65 | 68 | 2.0 | 8.0 | 0.00 | 0.02 | 0.02 | 66 | 1014.1 |
| 20260506234556 | 65 | 84 | 1.0 | 8.0 | 0.00 | 0.02 | 0.02 | 66 | 1013.9 |
| 20260506234058 | 65 | 63 | 2.0 | 10.0 | 0.00 | 0.02 | 0.02 | 66 | 1014.0 |
| 20260506233557 | 65 | 82 | 2.0 | 10.0 | 0.00 | 0.02 | 0.02 | 66 | 1013.9 |
| 20260506233058 | 65 | 74 | 2.0 | 9.0 | 0.00 | 0.02 | 0.02 | 66 | 1013.8 |
| 20260506232556 | 65 | 55 | 3.0 | 9.0 | 0.00 | 0.02 | 0.02 | 66 | 1014.0 |
| 20260506232055 | 65 | 97 | 3.0 | 14.0 | 0.00 | 0.02 | 0.02 | 65 | 1013.9 |
| 20260506231604 | 66 | 76 | 3.0 | 14.0 | 0.00 | 0.02 | 0.02 | 64 | 1013.9 |
| 20260506231056 | 66 | 70 | 4.0 | 14.0 | 0.00 | 0.02 | 0.02 | 64 | 1013.9 |
| 20260506230556 | 67 | 63 | 4.0 | 10.0 | 0.00 | 0.02 | 0.02 | 63 | 1013.7 |
| 20260506230112 | 67 | 97 | 2.0 | 8.0 | 0.00 | 0.02 | 0.02 | 62 | 1013.6 |
| 20260506225557 | 68 | 65 | 1.0 | 8.0 | 0.00 | 0.02 | 0.02 | 61 | 1013.6 |
| 20260506225055 | 68 | 9 | 2.0 | 7.0 | 0.00 | 0.02 | 0.02 | 60 | 1013.6 |
| 20260506224557 | 68 | 25 | 1.0 | 7.0 | 0.00 | 0.02 | 0.02 | 60 | 1013.6 |
| 20260506224055 | 69 | 30 | 2.0 | 7.0 | 0.00 | 0.02 | 0.02 | 60 | 1013.5 |
| 20260506223558 | 68 | 55 | 2.0 | 7.0 | 0.00 | 0.02 | 0.02 | 60 | 1013.4 |
| 20260506223058 | 68 | 63 | 2.0 | 7.0 | 0.00 | 0.02 | 0.02 | 60 | 1013.4 |
| 20260506222557 | 68 | 66 | 2.0 | 7.0 | 0.00 | 0.02 | 0.02 | 61 | 1013.5 |
| 20260506222059 | 68 | 0 | 2.0 | 6.0 | 0.00 | 0.02 | 0.02 | 61 | 1013.5 |
| 20260506221610 | 69 | 5 | 2.0 | 8.0 | 0.00 | 0.02 | 0.02 | 60 | 1013.5 |
| 20260506221055 | 69 | 0 | 1.0 | 8.0 | 0.00 | 0.02 | 0.02 | 61 | 1013.4 |
| 20260506220558 | 69 | 254 | 2.0 | 8.0 | 0.00 | 0.02 | 0.02 | 60 | 1013.3 |
| 20260506220056 | 69 | 27 | 2.0 | 8.0 | 0.00 | 0.02 | 0.02 | 60 | 1013.2 |
| 20260506215559 | 69 | 102 | 2.0 | 13.0 | 0.00 | 0.02 | 0.02 | 61 | 1013.2 |
| 20260506215058 | 69 | 69 | 3.0 | 13.0 | 0.00 | 0.02 | 0.02 | 62 | 1013.2 |
| 20260506214559 | 69 | 61 | 2.0 | 9.0 | 0.00 | 0.02 | 0.02 | 61 | 1013.2 |
| 20260506214056 | 69 | 70 | 2.0 | 9.0 | 0.00 | 0.02 | 0.02 | 61 | 1013.3 |
| 20260506213555 | 69 | 72 | 1.0 | 8.0 | 0.00 | 0.02 | 0.02 | 60 | 1013.5 |
| 20260506213107 | 69 | 98 | 1.0 | 6.0 | 0.00 | 0.02 | 0.02 | 60 | 1013.6 |
| 20260506212555 | 70 | 12 | 1.0 | 6.0 | 0.00 | 0.02 | 0.02 | 61 | 1013.6 |
| 20260506212058 | 68 | 0 | 2.0 | 5.0 | 0.00 | 0.02 | 0.02 | 62 | 1013.8 |
| 20260506211556 | 67 | 0 | 2.0 | 8.0 | 0.00 | 0.02 | 0.02 | 63 | 1013.9 |
| 20260506211055 | 68 | 19 | 2.0 | 8.0 | 0.00 | 0.02 | 0.02 | 62 | 1013.7 |
| 20260506210555 | 68 | 20 | 2.0 | 8.0 | 0.00 | 0.02 | 0.02 | 63 | 1013.5 |
| 20260506210105 | 68 | 86 | 1.0 | 8.0 | 0.00 | 0.02 | 0.02 | 61 | 1013.5 |
| 20260506205558 | 68 | 58 | 1.0 | 5.0 | 0.00 | 0.02 | 0.02 | 63 | 1013.8 |
| 20260506205056 | 68 | 44 | 1.0 | 5.0 | 0.00 | 0.02 | 0.02 | 62 | 1013.8 |
| 20260506204558 | 68 | 61 | 0.0 | 5.0 | 0.00 | 0.02 | 0.02 | 63 | 1013.7 |
| 20260506204056 | 67 | 0 | 2.0 | 7.0 | 0.00 | 0.02 | 0.02 | 63 | 1013.9 |
| 20260506203555 | 67 | 355 | 1.0 | 7.0 | 0.00 | 0.02 | 0.02 | 62 | 1013.9 |
| 20260506203123 | 67 | 32 | 1.0 | 5.0 | 0.00 | 0.02 | 0.02 | 63 | 1014.0 |
| 20260506202556 | 67 | 5 | 1.0 | 7.0 | 0.00 | 0.02 | 0.02 | 62 | 1014.0 |
| 20260506202056 | 67 | 49 | 1.0 | 7.0 | 0.00 | 0.02 | 0.02 | 65 | 1014.2 |
| 20260506201602 | 67 | 0 | 3.0 | 7.0 | 0.00 | 0.02 | 0.02 | 62 | 1014.4 |
| 20260506201057 | 67 | 0 | 1.0 | 6.0 | 0.00 | 0.02 | 0.02 | 60 | 1014.3 |
| 20260506200601 | 68 | 91 | 0.0 | 7.0 | 0.00 | 0.02 | 0.02 | 63 | 1014.5 |
| 20260506195556 | 67 | 41 | 1.0 | 5.0 | 0.00 | 0.02 | 0.02 | 63 | 1014.7 |
| 20260506195055 | 67 | 5 | 0.0 | 7.0 | 0.00 | 0.02 | 0.02 | 62 | 1014.6 |
| 20260506194605 | 67 | 5 | 1.0 | 7.0 | 0.00 | 0.02 | 0.02 | 62 | 1014.8 |
| 20260506194055 | 67 | 0 | 1.0 | 5.0 | 0.00 | 0.02 | 0.02 | 62 | 1014.8 |
| 20260506193555 | 67 | 0 | 1.0 | 6.0 | 0.00 | 0.02 | 0.02 | 62 | 1014.8 |
| 20260506193105 | 66 | 78 | 2.0 | 6.0 | 0.00 | 0.02 | 0.02 | 61 | 1014.7 |
| 20260506192555 | 67 | 0 | 0.0 | 7.0 | 0.00 | 0.02 | 0.02 | 63 | 1014.7 |
| 20260506192055 | 66 | 0 | 2.0 | 7.0 | 0.00 | 0.02 | 0.02 | 61 | 1014.5 |
| 20260506191559 | 66 | 61 | 2.0 | 8.0 | 0.00 | 0.02 | 0.02 | 63 | 1014.5 |
| 20260506191057 | 65 | 0 | 1.0 | 8.0 | 0.00 | 0.02 | 0.02 | 64 | 1014.4 |
| 20260506190556 | 65 | 27 | 3.0 | 8.0 | 0.00 | 0.02 | 0.02 | 63 | 1014.1 |
| 20260506190100 | 65 | 13 | 2.0 | 8.0 | 0.00 | 0.02 | 0.02 | 63 | 1014.0 |
| 20260506185602 | 65 | 5 | 1.0 | 9.0 | 0.00 | 0.02 | 0.02 | 65 | 1014.2 |
| 20260506185055 | 64 | 26 | 1.0 | 9.0 | 0.00 | 0.02 | 0.02 | 67 | 1014.2 |
| 20260506184556 | 63 | 79 | 2.0 | 8.0 | 0.00 | 0.02 | 0.02 | 66 | 1014.2 |
| 20260506184055 | 63 | 344 | 1.0 | 8.0 | 0.00 | 0.02 | 0.02 | 68 | 1014.2 |
| 20260506183558 | 62 | 100 | 3.0 | 9.0 | 0.00 | 0.02 | 0.02 | 69 | 1014.2 |
| 20260506183104 | 61 | 0 | 2.0 | 11.0 | 0.00 | 0.02 | 0.02 | 70 | 1014.3 |
| 20260506182555 | 61 | 22 | 4.0 | 11.0 | 0.00 | 0.02 | 0.02 | 69 | 1014.4 |
| 20260506182055 | 61 | 22 | 3.0 | 9.0 | 0.00 | 0.02 | 0.02 | 69 | 1014.1 |
| 20260506181556 | 60 | 333 | 2.0 | 9.0 | 0.00 | 0.02 | 0.02 | 68 | 1014.2 |
| 20260506181056 | 61 | 0 | 2.0 | 10.0 | 0.00 | 0.02 | 0.02 | 69 | 1014.4 |
| 20260506180556 | 60 | 25 | 2.0 | 10.0 | 0.00 | 0.02 | 0.02 | 69 | 1014.2 |
| 20260506175556 | 60 | 24 | 1.0 | 8.0 | 0.00 | 0.02 | 0.02 | 70 | 1014.2 |
| 20260506175059 | 60 | 311 | 2.0 | 10.0 | 0.00 | 0.02 | 0.02 | 71 | 1014.5 |
| 20260506174556 | 59 | 320 | 3.0 | 13.0 | 0.00 | 0.02 | 0.02 | 71 | 1014.5 |
| 20260506174055 | 59 | 70 | 4.0 | 13.0 | 0.00 | 0.02 | 0.02 | 72 | 1014.1 |
| 20260506173555 | 58 | 93 | 3.0 | 11.0 | 0.00 | 0.02 | 0.02 | 73 | 1014.6 |
| 20260506173104 | 58 | 65 | 3.0 | 9.0 | 0.00 | 0.02 | 0.02 | 75 | 1014.5 |
| 20260506172555 | 56 | 42 | 2.0 | 10.0 | 0.00 | 0.02 | 0.02 | 77 | 1014.6 |
| 20260506172056 | 56 | 13 | 3.0 | 10.0 | 0.00 | 0.02 | 0.02 | 76 | 1014.6 |
| 20260506171556 | 55 | 63 | 2.0 | 10.0 | 0.00 | 0.02 | 0.02 | 77 | 1014.6 |
| 20260506171055 | 55 | 67 | 4.0 | 10.0 | 0.00 | 0.02 | 0.02 | 77 | 1014.9 |
| 20260506170556 | 55 | 328 | 2.0 | 11.0 | 0.00 | 0.02 | 0.02 | 77 | 1015.0 |
| 20260506170107 | 55 | 80 | 3.0 | 11.0 | 0.00 | 0.02 | 0.02 | 78 | 1015.3 |
| 20260506165555 | 54 | 84 | 1.0 | 9.0 | 0.00 | 0.02 | 0.02 | 78 | 1015.0 |
| 20260506165056 | 54 | 71 | 1.0 | 7.0 | 0.00 | 0.02 | 0.02 | 79 | 1014.9 |
| 20260506164615 | 54 | 50 | 1.0 | 10.0 | 0.00 | 0.02 | 0.02 | 78 | 1014.9 |
| 20260506164056 | 54 | 9 | 3.0 | 10.0 | 0.00 | 0.02 | 0.02 | 79 | 1015.0 |
| 20260506163555 | 54 | 98 | 1.0 | 11.0 | 0.00 | 0.02 | 0.02 | 79 | 1014.6 |
| 20260506163104 | 54 | 13 | 3.0 | 11.0 | 0.00 | 0.02 | 0.02 | 79 | 1014.5 |
| 20260506162555 | 54 | 71 | 2.0 | 8.0 | 0.01 | 0.02 | 0.02 | 80 | 1014.6 |
| 20260506162055 | 54 | 34 | 2.0 | 7.0 | 0.01 | 0.02 | 0.02 | 80 | 1014.6 |
| 20260506161557 | 54 | 67 | 1.0 | 7.0 | 0.02 | 0.02 | 0.02 | 81 | 1014.8 |
| 20260506161058 | 54 | 44 | 0.0 | 11.0 | 0.02 | 0.02 | 0.02 | 82 | 1015.0 |
| 20260506160555 | 53 | 73 | 1.0 | 11.0 | 0.02 | 0.02 | 0.02 | 82 | 1015.0 |
| 20260506160109 | 53 | 30 | 2.0 | 9.0 | 0.02 | 0.02 | 0.02 | 82 | 1014.7 |
| 20260506155554 | 53 | 16 | 3.0 | 9.0 | 0.02 | 0.02 | 0.02 | 82 | 1014.8 |
| 20260506155056 | 53 | 9 | 3.0 | 8.0 | 0.02 | 0.02 | 0.02 | 82 | 1014.2 |
| 20260506154600 | 53 | 19 | 1.0 | 5.0 | 0.02 | 0.02 | 0.02 | 83 | 1014.1 |
| 20260506154056 | 53 | 69 | 1.0 | 7.0 | 0.02 | 0.02 | 0.02 | 83 | 1015.0 |
| 20260506153558 | 53 | 0 | 1.0 | 7.0 | 0.02 | 0.02 | 0.02 | 83 | 1015.0 |
| 20260506153100 | 53 | 15 | 1.0 | 4.0 | 0.02 | 0.02 | 0.02 | 82 | 1015.6 |
| 20260506152555 | 53 | 0 | 0.0 | 1.0 | 0.01 | 0.01 | 0.01 | 82 | 1016.1 |
| 20260506152056 | 53 | 0 | 0.0 | 2.0 | 0.01 | 0.01 | 0.01 | 82 | 1016.4 |
| 20260506151605 | 53 | 0 | 0.0 | 2.0 | 0.00 | 0.00 | 0.00 | 82 | 1016.7 |
| 20260506151055 | 53 | 26 | 0.0 | 3.0 | 0.00 | 0.00 | 0.00 | 82 | 1016.5 |
| 20260506150556 | 53 | 0 | 0.0 | 4.0 | 0.00 | 0.00 | 0.00 | 82 | 1016.2 |
| 20260506150109 | 53 | 0 | 0.0 | 4.0 | 0.00 | 0.00 | 0.00 | 82 | 1016.1 |
| 20260506145555 | 53 | 0 | 1.0 | 5.0 | 0.00 | 0.00 | 0.00 | 83 | 1015.1 |
| 20260506145055 | 52 | 9 | 1.0 | 6.0 | 0.00 | 0.00 | 0.00 | 83 | 1014.2 |
| 20260506144612 | 52 | 5 | 1.0 | 7.0 | 0.00 | 0.00 | 0.00 | 83 | 1014.7 |
| 20260506144055 | 52 | 25 | 1.0 | 7.0 | 0.00 | 0.00 | 0.00 | 83 | 1014.6 |
| 20260506143556 | 52 | 0 | 0.0 | 6.0 | 0.00 | 0.00 | 0.00 | 82 | 1014.8 |
| 20260506143054 | 52 | 0 | 1.0 | 6.0 | 0.00 | 0.00 | 0.00 | 82 | 1015.2 |
| 20260506142554 | 52 | 25 | 0.0 | 5.0 | 0.00 | 0.00 | 0.00 | 82 | 1015.2 |
| 20260506142055 | 52 | 0 | 2.0 | 5.0 | 0.00 | 0.00 | 0.00 | 82 | 1014.9 |
| 20260506141600 | 52 | 0 | 1.0 | 4.0 | 0.00 | 0.00 | 0.00 | 82 | 1014.9 |
| 20260506141055 | 52 | 0 | 0.0 | 4.0 | 0.00 | 0.00 | 0.00 | 81 | 1015.0 |
| 20260506140555 | 52 | 320 | 2.0 | 6.0 | 0.00 | 0.00 | 0.00 | 81 | 1015.2 |
| 20260506140057 | 52 | 360 | 1.0 | 8.0 | 0.00 | 0.00 | 0.00 | 81 | 1015.1 |
| 20260506135556 | 52 | 13 | 2.0 | 8.0 | 0.00 | 0.00 | 0.00 | 81 | 1015.0 |
| 20260506135056 | 52 | 349 | 2.0 | 7.0 | 0.00 | 0.00 | 0.00 | 81 | 1014.6 |
| 20260506134557 | 52 | 322 | 1.0 | 9.0 | 0.00 | 0.00 | 0.00 | 82 | 1014.4 |
| 20260506134059 | 52 | 340 | 2.0 | 9.0 | 0.00 | 0.00 | 0.00 | 82 | 1014.1 |
| 20260506133556 | 52 | 28 | 2.0 | 9.0 | 0.00 | 0.00 | 0.00 | 82 | 1013.8 |
| 20260506133109 | 52 | 57 | 1.0 | 7.0 | 0.00 | 0.00 | 0.00 | 82 | 1013.9 |
| 20260506132553 | 52 | 0 | 1.0 | 6.0 | 0.00 | 0.00 | 0.00 | 82 | 1014.1 |
| 20260506132058 | 52 | 281 | 1.0 | 7.0 | 0.00 | 0.00 | 0.00 | 82 | 1014.1 |
| 20260506131614 | 52 | 352 | 2.0 | 7.0 | 0.00 | 0.00 | 0.00 | 82 | 1014.0 |
| 20260506131056 | 52 | 12 | 1.0 | 7.0 | 0.00 | 0.00 | 0.00 | 82 | 1014.0 |
| 20260506130556 | 52 | 305 | 2.0 | 7.0 | 0.00 | 0.00 | 0.00 | 82 | 1013.7 |
| 20260506130054 | 52 | 5 | 1.0 | 8.0 | 0.00 | 0.00 | 0.00 | 82 | 1013.8 |
| 20260506125556 | 52 | 0 | 2.0 | 8.0 | 0.00 | 0.00 | 0.00 | 83 | 1013.5 |
| 20260506125115 | 52 | 16 | 2.0 | 5.0 | 0.00 | 0.00 | 0.00 | 82 | 1013.7 |
| 20260506124553 | 52 | 31 | 1.0 | 8.0 | 0.00 | 0.00 | 0.00 | 83 | 1013.6 |
| 20260506124055 | 52 | 0 | 2.0 | 8.0 | 0.00 | 0.00 | 0.00 | 82 | 1013.4 |
| 20260506123555 | 51 | 30 | 1.0 | 8.0 | 0.00 | 0.00 | 0.00 | 82 | 1013.6 |
| 20260506123057 | 51 | 342 | 2.0 | 8.0 | 0.00 | 0.00 | 0.00 | 82 | 1013.5 |
| 20260506122556 | 51 | 355 | 2.0 | 8.0 | 0.00 | 0.00 | 0.00 | 82 | 1013.4 |
| 20260506122054 | 51 | 334 | 3.0 | 8.0 | 0.00 | 0.00 | 0.00 | 82 | 1013.5 |
| 20260506121559 | 51 | 15 | 2.0 | 9.0 | 0.00 | 0.00 | 0.00 | 82 | 1013.4 |
| 20260506121055 | 51 | 355 | 3.0 | 9.0 | 0.00 | 0.00 | 0.00 | 82 | 1013.5 |
| 20260506120556 | 51 | 342 | 2.0 | 8.0 | 0.00 | 0.00 | 0.00 | 82 | 1013.3 |
| 20260506120103 | 51 | 330 | 2.0 | 8.0 | 0.00 | 0.00 | 0.00 | 82 | 1013.2 |
| 20260506115555 | 51 | 331 | 2.0 | 8.0 | 0.00 | 0.00 | 0.00 | 82 | 1013.4 |
| 20260506115056 | 52 | 34 | 3.0 | 8.0 | 0.00 | 0.00 | 0.00 | 81 | 1013.3 |
| 20260506114555 | 52 | 348 | 2.0 | 11.0 | 0.00 | 0.00 | 0.00 | 81 | 1013.2 |
| 20260506114058 | 52 | 58 | 3.0 | 11.0 | 0.00 | 0.00 | 0.00 | 81 | 1013.0 |
| 20260506113555 | 52 | 5 | 2.0 | 9.0 | 0.00 | 0.00 | 0.00 | 81 | 1013.0 |
| 20260506113056 | 52 | 355 | 2.0 | 10.0 | 0.00 | 0.00 | 0.00 | 81 | 1012.9 |
| 20260506112556 | 52 | 42 | 3.0 | 10.0 | 0.00 | 0.00 | 0.00 | 80 | 1012.8 |
| 20260506112057 | 52 | 323 | 4.0 | 10.0 | 0.00 | 0.00 | 0.00 | 79 | 1012.7 |
| 20260506111555 | 53 | 14 | 2.0 | 9.0 | 0.00 | 0.00 | 0.00 | 79 | 1012.3 |
| 20260506111055 | 53 | 344 | 3.0 | 9.0 | 0.00 | 0.00 | 0.00 | 78 | 1012.4 |
| 20260506110555 | 53 | 348 | 3.0 | 9.0 | 0.00 | 0.00 | 0.00 | 78 | 1012.4 |
| 20260506110113 | 53 | 9 | 2.0 | 9.0 | 0.00 | 0.00 | 0.00 | 77 | 1012.3 |
| 20260506105555 | 53 | 337 | 2.0 | 9.0 | 0.00 | 0.00 | 0.00 | 76 | 1012.3 |
| 20260506105054 | 54 | 338 | 4.0 | 9.0 | 0.00 | 0.00 | 0.00 | 76 | 1012.3 |
| 20260506104613 | 54 | 341 | 3.0 | 9.0 | 0.00 | 0.00 | 0.00 | 75 | 1012.0 |
| 20260506104054 | 54 | 333 | 3.0 | 10.0 | 0.00 | 0.00 | 0.00 | 75 | 1011.9 |
| 20260506103555 | 54 | 0 | 4.0 | 10.0 | 0.00 | 0.00 | 0.00 | 75 | 1012.1 |
| 20260506103054 | 54 | 355 | 2.0 | 8.0 | 0.00 | 0.00 | 0.00 | 75 | 1012.1 |
| 20260506102557 | 54 | 15 | 3.0 | 8.0 | 0.00 | 0.00 | 0.00 | 74 | 1011.9 |
| 20260506102059 | 54 | 360 | 3.0 | 8.0 | 0.00 | 0.00 | 0.00 | 74 | 1011.9 |
| 20260506101556 | 55 | 360 | 2.0 | 7.0 | 0.00 | 0.00 | 0.00 | 74 | 1011.9 |
| 20260506101057 | 55 | 338 | 2.0 | 9.0 | 0.00 | 0.00 | 0.00 | 74 | 1011.8 |
| 20260506100557 | 55 | 49 | 3.0 | 9.0 | 0.00 | 0.00 | 0.00 | 74 | 1011.8 |
| 20260506100111 | 55 | 28 | 2.0 | 9.0 | 0.00 | 0.00 | 0.00 | 74 | 1011.8 |
| 20260506095555 | 55 | 5 | 1.0 | 8.0 | 0.00 | 0.00 | 0.00 | 74 | 1011.6 |
| 20260506095055 | 55 | 360 | 3.0 | 8.0 | 0.00 | 0.00 | 0.00 | 74 | 1011.5 |
| 20260506094601 | 55 | 17 | 1.0 | 6.0 | 0.00 | 0.00 | 0.00 | 74 | 1011.5 |
| 20260506094055 | 55 | 5 | 1.0 | 6.0 | 0.00 | 0.00 | 0.00 | 74 | 1011.4 |
| 20260506093554 | 55 | 0 | 0.0 | 4.0 | 0.00 | 0.00 | 0.00 | 74 | 1011.4 |
| 20260506093112 | 55 | 45 | 1.0 | 4.0 | 0.00 | 0.00 | 0.00 | 74 | 1011.1 |
| 20260506092556 | 55 | 0 | 1.0 | 3.0 | 0.00 | 0.00 | 0.00 | 75 | 1011.1 |
| 20260506092056 | 56 | 0 | 0.0 | 3.0 | 0.00 | 0.00 | 0.00 | 75 | 1011.0 |
| 20260506091055 | 56 | 9 | 0.0 | 6.0 | 0.00 | 0.00 | 0.00 | 75 | 1010.8 |
| 20260506090557 | 56 | 360 | 1.0 | 6.0 | 0.00 | 0.00 | 0.00 | 74 | 1010.9 |
| 20260506090105 | 56 | 352 | 1.0 | 6.0 | 0.00 | 0.00 | 0.00 | 74 | 1010.8 |
| 20260506085555 | 56 | 5 | 1.0 | 6.0 | 0.00 | 0.00 | 0.00 | 74 | 1010.8 |
| 20260506085055 | 56 | 337 | 2.0 | 6.0 | 0.00 | 0.00 | 0.00 | 74 | 1010.7 |
| 20260506084631 | 56 | 0 | 1.0 | 6.0 | 0.00 | 0.00 | 0.00 | 74 | 1010.7 |
| 20260506084055 | 56 | 31 | 1.0 | 5.0 | 0.00 | 0.00 | 0.00 | 74 | 1010.7 |
| 20260506083556 | 56 | 13 | 1.0 | 8.0 | 0.00 | 0.00 | 0.00 | 75 | 1010.5 |
| 20260506083058 | 56 | 92 | 1.0 | 8.0 | 0.00 | 0.00 | 0.00 | 74 | 1010.6 |
| 20260506082557 | 56 | 0 | 1.0 | 8.0 | 0.00 | 0.00 | 0.00 | 74 | 1010.6 |
| 20260506082055 | 56 | 13 | 1.0 | 7.0 | 0.00 | 0.00 | 0.00 | 74 | 1010.6 |
| 20260506081559 | 56 | 22 | 2.0 | 7.0 | 0.00 | 0.00 | 0.00 | 74 | 1010.7 |
| 20260506081056 | 56 | 0 | 1.0 | 7.0 | 0.00 | 0.00 | 0.00 | 74 | 1010.6 |
| 20260506080559 | 56 | 5 | 1.0 | 7.0 | 0.00 | 0.00 | 0.00 | 75 | 1010.6 |
| 20260506073054 | 57 | 310 | 1.0 | 6.0 | 0.00 | 0.00 | 0.00 | 76 | 1010.2 |
| 20260506072555 | 57 | 0 | 2.0 | 7.0 | 0.00 | 0.00 | 0.00 | 75 | 1009.7 |
| 20260506072055 | 57 | 67 | 2.0 | 9.0 | 0.00 | 0.00 | 0.00 | 76 | 1009.7 |
| 20260506071558 | 57 | 70 | 2.0 | 9.0 | 0.00 | 0.00 | 0.00 | 75 | 1009.7 |
| 20260506071055 | 57 | 66 | 2.0 | 8.0 | 0.00 | 0.00 | 0.00 | 76 | 1009.7 |
| 20260506070555 | 57 | 71 | 2.0 | 8.0 | 0.00 | 0.00 | 0.00 | 76 | 1009.7 |
| 20260506062055 | 57 | 41 | 2.0 | 8.0 | 0.00 | 0.00 | 0.00 | 76 | 1010.1 |
| 20260506061559 | 57 | 5 | 0.0 | 4.0 | 0.00 | 0.00 | 0.00 | 76 | 1010.1 |
| 20260506061055 | 57 | 313 | 2.0 | 7.0 | 0.00 | 0.00 | 0.00 | 76 | 1010.2 |